Location: Unspecified
(0.0000°N, 0.0000°E)
Time: 03:10:44
(UTC+00:00)

Daily predictions for brighter satellites

Satellite Brightness Start Highest point End
(mag) Time Altitude Azimuth Time Altitude Azimuth Time Altitude Azimuth
ARIANE 5 R/B 4.4 03:30:49 68° WSW 03:33:23 82° S 09:34:53 10° E
Cosmos 1980 Rocket 3.6 03:57:14 10° S 04:02:23 35° ESE 04:07:31 10° NE
USA 215 4.0 03:58:40 10° SE 04:04:52 45° NE 04:07:13 33° N
ARIANE 5 DEB (SYLDA) 4.0 04:07:50 84° WSW 04:07:59 87° S 04:12:05 10° E
ASC 2 Rocket 4.5 04:18:06 29° SSE 04:18:06 29° SSE 04:20:29 10° SE
Cosmos 773 Rocket 4.3 04:18:43 57° S 04:18:43 57° S 04:22:47 10° SSE
GPS 2-12 Rocket1 4.4 04:20:05 31° SSE 04:20:05 31° SSE 04:22:55 10° SE
Centaur AC-125 3.8 04:20:51 37° S 04:21:53 45° SE 04:32:39 10° ENE
Cosmos 1821 Rocket 4.1 04:16:06 10° S 04:22:10 70° E 04:28:12 10° N
Delta 198 4.3 04:25:17 47° NNE 04:25:17 47° NNE 04:29:25 10° NE
SJ 16-02 2.9 04:25:18 10° SSE 04:29:23 36° ESE 04:33:26 10° NE
ATLAS 5 CENTAUR R/B 3.6 04:29:08 10° S 04:32:56 27° ESE 04:36:37 10° NE
Cosmos 1697 Rocket 4.3 04:38:44 19° N 04:38:44 19° N 04:40:16 10° N
Spelda 3.6 04:36:37 54° SSE 04:36:37 54° SSE 04:39:00 10° E
ATLAS 3B R/B 2.5 04:37:55 35° NNW 04:40:56 78° WSW 04:47:37 10° SSE
Meteor 2-10 Rocket 3.5 04:35:45 10° S 04:41:11 86° E 04:46:20 10° N
IDEFIX/ARIANE 42P 2.7 04:40:11 10° NNE 04:45:22 76° ESE 04:50:33 10° S
Meteor 2-3 Rocket 3.6 04:41:18 10° N 04:47:01 83° W 04:52:41 10° S
NOAA 6 3.9 04:45:55 10° N 04:51:02 84° WNW 04:56:11 10° SSW
Cosmos 2219 3.5 04:45:43 10° N 04:51:23 68° ENE 04:57:06 10° SSE
Cosmos 1707 Rocket 3.7 04:47:11 10° S 04:51:34 75° E 04:55:58 10° N
USA 238 DEB 3.9 04:48:02 29° NW 04:51:44 58° WSW 04:58:50 10° S
USA 238 3.8 04:48:04 29° NW 04:51:50 59° WSW 04:58:56 10° S
ARIANE 5 DEB (SYLDA) 3.5 04:54:24 37° NW 04:55:25 47° N 04:58:53 10° ENE
USA 234 3.2 04:50:35 10° NNE 04:57:03 70° NW 05:03:34 10° SW
Cosmos 1825 3.1 04:54:08 10° N 04:57:47 49° E 05:01:28 10° SSE
Cosmos 1933 Rocket 3.4 04:54:49 13° N 04:58:39 70° W 05:03:06 10° S
Cosmos 1408 2.8 04:57:38 10° N 05:01:16 69° E 05:04:53 10° S
Meteor 1-28 Rocket 3.2 04:59:04 10° SSE 05:02:53 83° E 05:06:41 10° N
Cosmos 2360 4.3 04:57:28 10° SSW 05:03:01 52° WNW 05:08:34 10° N
Atlas Centaur 2 4.1 05:01:58 10° S 05:03:25 12° SSE 05:04:47 10° SE
Cosmos 1605 Rocket 4.1 05:00:51 10° S 05:07:09 81° E 05:13:18 10° N
Cosmos 923 Rocket 4.1 05:03:32 14° NNW 05:07:55 54° WSW 05:13:06 10° S
Milstar 3 3.5 05:00:56 17° NW 05:08:53 60° NNE 05:15:36 10° ESE
Radarsat Rocket 4.1 05:03:46 10° N 05:09:49 73° WNW 05:16:39 10° SSW
Cosmos 1933 3.4 05:06:44 10° S 05:10:50 83° E 05:14:55 10° N
Cosmos 2297 Rocket 4.4 05:07:02 10° NNE 05:11:39 26° ENE 05:16:16 10° SE
ARIANE 44LP R/B 2.8 05:14:49 20° WNW 05:17:41 42° N 05:19:57 10° ENE
Ariane H10 4.5 05:12:27 18° W 05:17:52 73° S 06:07:41 10° E
Cosmos 1000 Rocket 4.4 05:12:42 10° N 05:18:54 88° W 05:25:04 10° S
Cosmos 2112 Rocket 3.9 05:14:11 10° NNW 05:19:24 70° WSW 05:24:35 10° S
Milstar 3 Cent rocket 3.5 05:17:31 19° WNW 05:20:31 29° NNW 05:27:30 10° NE
ATLAS 5 CENTAUR R/B 3.7 05:11:09 10° WSW 05:23:03 31° S 05:27:20 10° ESE
Cosmos 2084 Rocket 3.4 05:20:18 15° NW 05:23:27 51° WSW 05:27:26 10° S
SWIFT 3.0 05:25:12 17° W 05:27:57 38° NNW 05:31:54 10° NE
Cosmos 1125 Rocket 3.9 05:24:12 10° SW 05:29:01 39° WNW 05:33:50 10° N
NOSS 3-2 (C) 4.2 05:20:56 10° NNW 05:29:16 82° WSW 05:37:34 10° SSE
Cosmos 2322 Rocket 2.4 05:26:09 10° S 05:31:46 76° ESE 05:37:24 10° NNE
Cosmos 405 Rocket 3.0 05:28:37 10° S 05:32:42 79° E 05:36:44 10° N
USA 116 3.6 05:33:22 10° S 05:36:47 58° W 05:40:36 10° NNW
Ariane H10 4.0 05:34:50 12° WNW 05:37:03 28° N 05:39:31 10° ENE
SMAP 4.5 05:33:49 10° NNE 05:38:13 44° ESE 05:42:38 10° S
Cosmos 1484 Rocket 3.3 05:34:38 10° NNE 05:38:37 68° ESE 05:42:37 10° S
Cosmos 1862 3.8 05:37:32 10° N 05:41:30 67° E 05:45:29 10° S
Delta 7925 Rocket 3.7 05:37:33 10° W 05:41:58 44° NNW 05:46:47 10° NE
Meteor 1-26 Rocket 4.3 05:36:22 10° S 05:42:16 83° W 05:48:11 10° N
Cosmos 2285 Rocket 4.2 05:37:19 10° N 05:43:45 85° ENE 05:50:11 10° SSE
Delta 2 Rocket 3.9 05:40:25 10° WSW 05:43:57 32° NW 05:47:10 10° NNE
Cosmos 2360 Rocket 4.4 05:39:21 10° SSE 05:44:20 32° ESE 05:49:18 10° NE
Cosmos 1980 Rocket 3.6 05:42:46 10° WSW 05:46:06 16° WNW 05:49:26 10° NW
USA 215 4.3 05:42:12 10° S 05:47:35 28° SW 05:52:59 10° WNW
Okean-O 4.0 05:45:38 10° NW 05:48:35 18° WNW 05:51:33 10° WSW
CSL-04 Rocket 4.4 05:43:53 10° NNE 05:49:08 61° ESE 05:54:28 10° S
Cosmos 1900 4.4 05:44:08 10° SSW 05:49:11 61° WNW 05:54:14 10° N
BREEZE-M DEB (TANK) 3.0 05:47:36 10° NW 05:56:24 58° WSW 05:59:27 10° SSE
ARIANE 44LP R/B 2.9 05:51:25 10° W 05:57:39 57° N 05:59:53 10° ENE
MAQSAT/ARIANE V 3.2 06:00:49 10° W 06:17:05 61° SSW 06:20:16 10° ESE
